User: anonymous   Login
Location: Gleizolles
(44.4833°N, 6.7667°E)
Time: 16:23:06
(UTC+00:00)
Language:

Resurs 01 Rocket - Orbit

View from above orbital plane
View from above orbital plane
View from above satellite
View from above satellite

Ground track
Ground track

The orbit data is extracted from the following two-line orbital elements,

1 23343U 94074B   20196.13079455 -.00000021  00000-0  43268-5 0  9993
2 23343  97.9971 248.8932 0008183  69.4759 312.7027 14.76828978382561
Epoch (UTC): 14 July 2020 03:08:20
Eccentricity: 0.0008183
inclination: 97.9971°
perigee height: 633 km
apogee height: 645 km
right ascension of ascending node: 248.8932°
argument of perigee: 69.4759°
revolutions per day: 14.76828978
mean anomaly at epoch: 312.7027°
orbit number at epoch: 38256

The dashed part of the orbit path shows where the satellite is in the earth's shadow,  

DLR